Find OneWeb SL0279

NORAD ID: 48997 Int'l Des: 2021-060 Owner: ONEWEBN Country: UK Constellation: oneweb operational
LEOCIRCULARPOLARONEWEB_TYPE

实时位置

正在加载3D地球...

关于 OneWeb SL0279

正在加载描述...

即将过境

Passes for default location (London). Set your location on the main map for personalized predictions.

高度历史

Loading altitude history...

两行轨道根数

1 48997U 21060AG 26103.67635112 .00000110 00000-0 25334-3 0 9991
2 48997 87.9063 241.5881 0002103 100.2662 259.8706 13.16593926231136
Epoch: Apr 13, 2026 • Age: 24 hours

当前状态

高度 1208.7 km
速度 7.26 km/s
星下点 71.96°N, 35.23°W
发射日期 Jul 1, 2021
运行时间 4.7 years
类型 internet

技术详情

分类 Payload
质量 148.00 kg
干质量 140.00 kg
总质量 148.00 kg
长度 1.30 m
直径 1.00 m
跨度 5.00 m
形状 Trapezoid+2 pan
制造商 ONEWUS
平台类型 ARROW
阶段状态 In Orbit
所有者/国家 ONEWEBN/UK

Most Searched